Wind_Speed
18 16 21 19 16 17 19 18 15 14 12 11 9 9 11 12 11 8 6 8 8 8 6 6 5 5 3 5 5 4 4 5 5 3 3 6 6 5 4 3 6 8 6
18 17 16 19 20 19 18 16 13 12 12 11 10 11 10 12 11 9 7 6 6 7 7 6 6 5 5 5 5 5 6 6 6 8 5 5 7 6 8 8 9 10 11
19 22 20 21 20 19 17 15 14 13 10 9 8 7 8 10 10 9 8 7 4 6 6 6 5 4 2 4 3 7 12 10 7 10 7 6 5 5 6 5 4 3 3
18 20 22 22 21 19 17 13 10 8 7 7 8 10 8 8 9 10 9 8 8 7 6 5 3 2 2 2 4 12 13 13 14 15 12 8 7 9 8 8 9 8 8
20 21 22 21 19 17 13 8 6 7 7 7 9 10 12 11 11 12 12 12 15 15 14 12 10 9 8 7 12 15 15 16 13 14 12 11 9 7 7 5 6 8 11
23 20 20 18 16 13 12 11 9 8 8 8 9 10 11 12 12 15 18 20 20 21 25 25 25 23 23 22 18 15 11 12 14 17 14 14 11 9 8 6 4 2 3
24 22 20 17 16 14 12 12 11 12 11 10 12 13 14 18 18 21 23 24 27 26 25 24 24 24 22 24 26 26 24 21 19 18 20 16 14 10 7 8 7 9 7
24 23 20 18 18 15 14 14 15 15 16 18 21 23 24 22 22 25 29 31 29 27 24 22 23 24 24 25 27 31 31 29 27 26 25 22 19 15 13 10 10 9 8
23 22 22 21 20 17 18 19 20 21 23 25 28 28 29 24 28 31 32 33 31 29 26 24 24 24 20 20 26 32 31 27 23 22 22 20 19 18 16 10 14 10 6
23 24 23 22 21 21 23 24 25 28 28 28 29 29 27 27 26 29 33 34 34 30 26 23 21 22 20 20 25 27 27 21 19 18 19 19 18 17 16 15 12 11 7
24 25 24 22 23 24 26 28 29 30 29 28 29 29 29 27 26 25 26 30 32 31 28 25 22 21 21 21 21 23 23 18 17 17 17 17 16 18 17 15 14 12 10
27 26 25 24 25 27 30 29 29 31 31 24 29 29 26 25 23 22 23 27 28 31 29 25 22 20 21 21 23 20 17 15 14 16 17 17 16 15 16 13 13 12 11
29 26 27 26 28 30 31 31 26 27 26 22 22 25 25 25 24 22 23 25 26 30 26 23 21 22 22 22 18 15 12 12 14 17 17 16 15 14 12 13 14 11 13
27 27 28 28 27 28 24 27 26 25 24 23 22 26 30 29 27 26 26 26 24 25 23 22 22 21 19 19 16 14 14 14 15 16 15 14 13 15 17 17 17 18 17
28 27 26 26 28 25 21 21 23 23 32 33 29 32 33 29 27 27 27 25 24 23 23 22 22 21 20 18 17 16 14 14 15 15 14 14 15 16 17 18 18 18 16
26 25 25 26 25 26 26 22 18 22 25 25 26 27 25 28 27 24 23 23 23 21 22 22 20 19 19 17 16 15 14 15 15 15 15 15 16 16 17 18 18 18 20
27 26 26 26 26 26 24 27 24 18 19 24 23 24 28 28 23 23 23 21 18 18 22 20 19 17 17 15 14 13 15 13 13 14 15 15 14 15 17 18 19 19 19
25 28 27 26 26 25 27 29 27 29 20 20 22 25 26 25 23 23 22 21 18 16 18 18 18 16 15 14 13 13 12 12 12 13 13 13 14 14 16 18 18 18 19
26 23 25 27 28 30 31 29 29 33 26 21 23 23 23 23 23 20 18 17 20 18 16 16 15 15 15 14 13 11 10 11 11 11 11 12 12 13 14 15 17 16 17
23 26 29 28 30 30 30 30 28 30 31 21 21 25 27 27 24 20 16 15 16 17 16 16 15 14 14 13 12 10 10 10 10 10 10 11 11 12 12 14 16 18 18
24 28 31 30 29 30 30 29 30 29 31 28 28 31 31 29 25 21 17 16 15 15 16 15 15 14 13 12 11 10 8 9 9 9 9 10 10 11 12 13 14 16 15
24 26 28 30 31 30 30 32 32 31 32 31 29 28 28 24 22 19 17 15 14 13 13 13 13 12 11 11 11 9 8 9 8 8 8 9 9 10 11 12 14 15 16
22 23 24 28 30 30 29 30 31 31 31 31 31 29 27 24 21 19 18 16 15 14 14 13 12 13 12 11 9 7 6 8 8 7 7 8 8 9 10 12 13 14 16
21 23 25 27 29 29 29 29 29 29 30 30 31 30 28 26 23 19 18 17 16 15 13 13 11 11 12 12 11 8 8 8 7 7 6 7 7 8 9 11 13 12 13
18 21 24 26 28 28 28 28 28 28 29 30 30 29 27 25 24 21 20 18 16 15 14 13 12 11 11 11 10 9 9 9 7 6 6 6 7 7 8 10 12 12 13
15 19 21 23 25 27 28 29 28 28 29 29 29 28 27 27 26 24 21 20 18 16 14 13 12 12 12 12 11 9 9 8 8 7 6 6 6 7 8 9 10 11 11
Wind_Direction
129 126 136 139 173 158 157 158 161 163 170 182 195 191 190 189 179 180 159 163 182 196 205 204 204 193 210 236 267 251 206 175 116 104 96 112 95 113 138 213 187 185 153
124 123 123 147 151 146 152 155 158 165 161 172 179 178 181 180 180 187 178 177 182 192 198 210 220 204 209 247 256 233 201 167 138 125 119 88 102 97 98 109 115 120 120
143 147 155 151 146 144 143 142 146 147 148 158 160 167 177 183 181 186 193 190 197 213 219 226 197 192 226 220 244 206 167 160 157 145 128 116 95 101 97 92 92 89 88
152 151 152 146 143 143 143 144 157 173 189 196 205 201 203 176 181 184 180 167 160 154 142 127 142 156 177 174 168 162 140 125 123 119 110 105 97 83 93 100 83 84 86
152 152 149 148 145 140 138 145 150 151 169 178 188 193 202 192 180 176 164 146 124 106 96 88 86 93 93 105 140 133 129 124 117 111 102 103 83 68 62 61 87 81 66
157 157 150 148 142 135 137 143 137 142 138 145 162 172 170 177 172 166 151 133 121 116 109 106 101 97 93 94 99 102 103 114 111 107 97 88 72 66 56 55 76 55 23
160 160 156 151 140 136 147 139 142 137 134 136 142 145 136 131 163 144 136 126 120 116 113 113 109 107 108 102 92 91 85 88 89 99 92 80 70 55 57 56 72 78 65
157 161 161 156 144 155 150 142 144 137 136 130 122 117 116 118 135 129 125 120 114 109 108 108 107 106 104 105 101 92 85 82 82 80 78 72 64 58 60 74 75 78 66
156 161 163 163 155 156 147 144 138 132 124 118 122 120 113 109 122 126 123 117 112 106 105 107 106 103 106 108 105 102 100 94 85 80 78 73 65 59 58 63 52 48 43
164 165 165 164 159 153 145 135 129 126 119 118 113 115 117 115 126 129 126 121 112 108 104 100 99 102 105 106 106 109 101 95 89 82 74 71 64 58 51 47 43 40 29
164 163 164 164 160 153 142 136 132 123 117 112 107 111 114 120 124 127 126 122 120 115 109 104 100 101 102 101 98 98 100 100 88 83 79 71 63 55 54 51 51 51 47
160 158 159 159 153 147 140 134 130 126 119 112 109 106 112 117 121 123 124 121 121 116 112 108 105 103 101 98 96 99 99 93 88 84 78 70 64 58 54 52 53 52 45
153 150 153 150 148 148 141 134 127 123 120 118 116 114 113 116 116 124 122 120 117 111 108 107 107 106 104 98 99 101 96 91 93 90 83 74 63 56 51 48 46 45 37
144 143 145 139 136 140 136 138 134 132 126 123 121 121 126 129 129 128 125 120 120 118 117 112 112 115 113 111 108 99 92 93 93 93 87 76 63 51 50 42 37 29 27
141 139 136 134 134 133 131 134 138 143 149 144 142 140 139 141 143 141 141 140 136 130 125 121 119 118 114 109 101 98 99 98 94 91 86 76 61 56 51 39 34 30 29
138 137 135 132 131 131 129 112 134 148 153 149 147 146 145 140 143 143 140 137 135 136 128 125 123 121 116 114 111 108 101 97 93 91 82 70 64 55 40 37 37 35 25
140 137 136 135 134 133 131 126 107 115 147 143 141 145 144 141 143 141 135 134 136 142 128 131 130 127 123 121 120 115 109 99 95 84 76 69 59 48 39 39 32 26 21
141 142 140 139 139 136 137 136 133 127 127 126 142 145 145 143 144 141 139 138 137 141 136 140 136 133 132 133 129 121 113 106 97 85 76 65 55 48 42 33 27 21 16
140 140 139 141 144 146 146 143 140 140 138 135 135 139 145 145 144 146 149 144 145 145 145 144 142 140 140 138 134 126 116 107 100 87 75 65 57 50 43 32 25 23 17
144 147 146 144 146 147 148 146 144 144 147 147 149 150 152 150 152 157 154 150 150 150 151 148 147 149 146 146 144 137 124 116 107 88 77 67 59 47 37 27 24 22 22
143 148 154 150 149 152 152 151 153 151 155 162 163 164 167 166 162 159 156 157 157 157 155 154 153 154 155 155 152 147 136 123 115 97 82 72 61 50 36 30 27 26 25
149 152 156 156 160 155 157 162 164 164 167 169 169 169 175 172 163 161 159 158 157 154 156 157 154 154 156 158 156 154 144 135 124 107 92 78 66 51 40 36 31 28 27
159 150 154 161 165 165 163 166 171 174 175 174 174 175 181 176 171 168 163 161 160 158 158 159 158 157 159 159 155 152 143 139 126 112 98 83 70 52 44 36 28 24 24
165 162 161 166 169 171 172 172 176 179 179 178 181 185 183 181 178 175 172 166 165 162 160 159 160 163 163 161 158 153 147 143 130 117 96 86 72 59 46 37 30 27 26
179 167 168 169 174 176 177 177 179 181 183 185 188 190 189 186 184 183 180 174 172 170 167 163 163 166 166 164 161 155 152 148 137 122 102 86 73 61 46 36 28 26 24
184 180 176 176 178 183 183 183 184 186 186 190 194 195 194 192 191 191 187 183 181 177 176 170 168 169 169 167 166 163 159 155 147 131 106 87 77 66 48 36 28 25 25
Height
727 730 729 733 747 746 750 755 760 763 765 770 773 775 778 781 783 786 787 790 793 796 797 799 800 802 803 805 806 806 808 809 811 817 818 818 819 821 822 823 824 825 826
730 733 736 742 746 748 753 756 761 763 766 770 773 775 778 780 783 785 787 790 793 795 796 798 800 801 802 804 805 805 807 808 811 814 819 820 821 822 823 824 825 825 825
731 733 739 744 745 749 754 758 762 764 767 770 772 775 778 780 782 785 787 790 793 794 796 797 799 800 801 802 804 804 806 808 811 812 817 821 822 823 824 825 826 826 827
734 736 740 743 746 750 755 759 762 764 767 771 772 774 778 780 782 784 787 790 792 794 795 797 800 800 801 802 803 805 806 808 811 813 817 821 824 825 825 827 828 829 829
735 739 741 745 749 752 755 759 761 764 768 769 772 774 777 780 782 784 787 789 792 795 797 800 801 801 802 803 804 807 809 811 814 816 820 824 826 828 828 829 830 831 831
734 740 742 746 749 752 756 758 761 765 767 769 772 774 776 779 781 783 787 790 794 796 799 802 803 805 805 807 809 811 813 815 816 820 824 827 830 831 831 831 832 832 833
734 740 743 747 749 753 757 758 763 766 768 771 773 774 776 778 781 784 787 792 796 800 803 805 807 809 810 811 813 815 818 820 823 825 827 831 833 833 833 833 833 834 836
734 739 743 746 749 754 757 760 765 767 770 773 775 777 779 783 784 788 792 796 800 804 808 810 812 814 816 816 818 820 824 828 830 832 833 836 836 836 835 836 836 837 838
733 739 743 747 750 755 758 762 765 769 772 775 778 780 782 788 790 793 796 799 804 808 812 816 817 819 822 823 822 825 830 835 839 839 839 840 841 840 839 839 838 838 839
734 739 742 746 751 756 759 762 767 771 775 777 781 785 788 792 796 799 800 802 807 813 818 821 823 824 827 829 829 831 834 840 841 842 842 842 843 842 842 841 841 841 841
733 738 743 747 752 756 759 764 770 773 779 783 785 789 794 798 802 805 807 808 811 816 821 825 829 831 832 834 835 837 839 843 844 844 845 846 846 846 846 845 845 844 844
732 739 743 748 752 756 760 768 772 777 782 788 790 794 801 804 807 810 813 815 818 819 825 830 833 836 837 839 840 843 845 846 847 847 848 850 850 850 850 849 848 847 847
733 739 744 749 753 758 764 770 775 780 785 792 795 798 804 809 812 815 818 821 824 826 830 834 837 839 841 843 846 847 849 849 850 850 852 853 853 853 853 852 851 850 849
733 740 745 749 754 761 768 773 777 782 788 793 798 801 806 812 815 819 822 826 830 831 833 837 839 841 844 846 848 851 852 853 853 854 855 856 856 855 854 853 852 850 849
734 740 745 750 756 764 770 775 780 785 787 792 799 803 806 813 818 821 823 827 830 833 835 839 842 845 847 849 852 854 855 856 856 857 857 858 858 858 857 856 854 853 850
734 740 746 752 760 766 772 778 784 788 793 797 801 805 811 816 821 825 828 830 833 836 838 842 846 848 850 853 856 857 858 858 859 859 859 860 860 860 859 858 856 854 852
734 741 748 755 761 768 774 779 786 795 800 803 806 811 814 818 824 828 830 834 837 840 841 845 848 851 854 857 858 859 860 861 861 862 862 862 863 862 861 860 858 856 854
737 743 750 756 762 769 775 781 788 793 802 808 812 814 818 822 827 830 833 836 840 844 845 848 851 854 856 857 860 861 861 862 863 863 864 864 864 864 863 862 860 858 856
740 747 752 757 764 770 776 783 789 795 803 809 814 819 823 826 830 833 837 838 841 845 848 850 853 855 857 859 861 862 863 865 865 865 865 866 866 866 865 864 863 860 858
743 748 753 759 765 772 778 784 791 796 803 810 814 817 823 827 830 834 838 841 844 846 849 852 854 856 858 860 862 864 865 866 866 866 867 867 867 867 867 866 864 862 859
746 751 755 762 767 773 778 785 792 797 802 809 814 817 821 825 829 834 838 841 844 846 849 852 854 857 859 861 863 865 866 867 867 868 868 868 868 868 868 867 865 863 861
748 752 758 763 769 774 779 786 792 798 803 809 815 820 824 828 832 835 838 841 844 848 850 853 855 857 860 862 864 866 867 868 868 869 869 868 869 869 869 868 866 865 863
750 754 760 766 771 776 781 786 792 798 803 809 814 819 823 828 832 836 838 842 845 848 851 853 855 858 860 863 865 867 868 868 869 870 869 870 870 870 869 869 868 866 865
751 755 760 767 772 777 782 787 792 798 803 808 813 818 822 827 832 836 839 842 845 848 851 853 856 858 861 864 865 867 868 869 870 871 871 871 871 872 871 871 869 868 866
753 757 761 766 771 776 782 786 792 797 802 806 811 817 822 827 831 835 839 842 845 848 851 853 856 858 862 864 866 867 869 870 871 872 872 872 872 873 872 872 871 870 868
754 756 761 765 771 775 780 785 790 795 799 804 809 815 820 825 830 834 838 841 844 848 851 854 856 859 862 864 866 868 869 871 872 873 873 873 873 873 873 873 872 871 870